Home > Weather > Drammen > Past weeks

Flag for Norway Past Weather in Drammen, Norway — Yesterday and Last 2 Weeks

Now
59 °F

Passing clouds.


Feels Like: 58 °F
Forecast: 56 / 71 °F
Wind: 7 mph from South

Location: Statfjord B

Current Time: Jul 27, 2016 at 7:20:37 PM

Latest Report: Jul 27, 2016 at 6:50 PM


Visibility: N/A

Pressure: 29.71 "Hg

Humidity: 77%

Dew Point: 52 °F

Location of DrammenLocation

Past Weather in Drammen — Graph

°F

Drammen Temperature Yesterday

Maximum temperature yesterday: 57 °F (at 12:50 PM)
Minimum temperature yesterday: 54 °F (at 5:50 AM)
Average temperature yesterday: 56 °F

High & Low Weather Summary for the Past Weeks

 TemperatureHumidityPressure
High75 °F (Jul 21, 8:20 AM)100% (Jul 12, 10:50 PM)30.12 "Hg (Jul 12, 10:50 PM)
Low52 °F (Jul 13, 11:50 PM)54% (Jul 21, 8:20 AM)29.62 "Hg (Jul 12, 5:20 PM)
Average57 °F90%29.92 "Hg
* Reported Jul 12 5:20 PM — Jul 27 5:50 PM, Drammen, Weather by CustomWeather, © 2016

Note: Actual official high and low records may vary slightly from our data, if they occured in-between our weather recording intervals... More about our weather records

Advertising

Drammen Weather History for the Previous 24 Hours

Scroll right to see more
 ConditionsComfort  
Time TempWeatherWind HumidityBarometerVisibility
5:50 PM
Wed, Jul 27
57 °FCool.9 mph82%29.74 "HgN/A
5:20 PM59 °FPassing clouds.9 mph77%29.74 "HgN/A
4:50 PM55 °FScattered clouds.9 mph88%29.74 "HgN/A
4:20 PM55 °FScattered clouds.9 mph88%29.74 "HgN/A
3:50 PM55 °FPassing clouds.7 mph88%29.74 "HgN/A
3:20 PM57 °FScattered clouds.6 mph77%29.74 "HgN/A
2:50 PM59 °FPassing clouds.3 mph72%29.74 "HgN/A
2:20 PM61 °FPassing clouds.5 mph77%29.74 "HgN/A
1:50 PM61 °FCool.2 mph77%29.74 "HgN/A
1:20 PM61 °FPassing clouds.2 mph77%29.74 "HgN/A
12:50 PM59 °FPartly sunny.No wind88%29.74 "HgN/A
12:20 PM55 °FBroken clouds.5 mph94%29.74 "HgN/A
11:50 AM55 °FSprinkles. Partly sunny.2 mph100%29.74 "HgN/A
11:20 AM54 °FLight rain. Partly sunny.6 mph100%29.74 "HgN/A
10:50 AM54 °FRain. Overcast.9 mph100%29.77 "HgN/A
10:20 AM54 °FRain. Partly sunny.13 mph94%29.77 "Hg4 mi
9:50 AM55 °FSprinkles. Partly sunny.10 mph94%29.77 "HgN/A
9:20 AM55 °FSprinkles. Partly sunny.12 mph94%29.77 "HgN/A
8:50 AM55 °FSprinkles. Partly sunny.13 mph100%29.77 "HgN/A
8:20 AM55 °FSprinkles. Broken clouds.13 mph100%29.77 "HgN/A
7:50 AM55 °FSprinkles. Partly sunny.12 mph100%29.77 "HgN/A
7:20 AM55 °FBroken clouds.12 mph94%29.80 "HgN/A
6:50 AM54 °FLight rain. Partly sunny.16 mph100%29.80 "HgN/A
6:20 AM54 °FRain. Overcast.15 mph94%29.80 "HgN/A
5:50 AM54 °FLight rain. Partly sunny.18 mph94%29.80 "HgN/A
5:20 AM54 °FLight rain. Passing clouds.16 mph100%29.83 "HgN/A
4:50 AM55 °FSprinkles. Passing clouds.12 mph94%29.83 "Hg1 mi
4:20 AM55 °FSprinkles. Passing clouds.13 mph94%29.83 "HgN/A
3:50 AM55 °FLight rain. Passing clouds.13 mph94%29.83 "HgN/A
3:20 AM55 °FPassing clouds.21 mph94%29.83 "HgN/A
2:50 AM55 °FPartly cloudy.21 mph94%29.83 "HgN/A
2:20 AM57 °FPassing clouds.22 mph88%29.86 "HgN/A
1:50 AM57 °FPassing clouds.20 mph88%29.86 "HgN/A
1:20 AM57 °FPassing clouds.21 mph88%29.86 "HgN/A
12:50 AM57 °FPartly cloudy.21 mph88%29.86 "HgN/A
12:20 AM57 °FPartly cloudy.22 mph88%29.86 "HgN/A
11:50 PM
Tue, Jul 26
57 °FPartly cloudy.22 mph94%29.86 "HgN/A
11:20 PM57 °FPassing clouds.22 mph88%29.89 "HgN/A
10:50 PM55 °FBroken clouds.23 mph94%29.89 "HgN/A
10:20 PM55 °FSprinkles. Partly sunny.23 mph94%29.89 "HgN/A
9:50 PM55 °FDrizzle. Partly sunny.23 mph94%29.89 "HgN/A
9:20 PM55 °FPartly sunny.22 mph94%29.89 "HgN/A
8:50 PM55 °FBroken clouds.23 mph94%29.89 "HgN/A
8:20 PM55 °FBroken clouds.24 mph94%29.86 "HgN/A
7:50 PM55 °FPartly sunny.22 mph94%29.86 "HgN/A
7:20 PM57 °FPartly sunny.23 mph88%29.86 "HgN/A
Weather by CustomWeather, © 2016

See weather overviewHow to use our weather pages